Tracking 29510 objects as of 16-Sep-2024
HD Live streaming from Space Station
objects crossing your sky now

FREGAT R/B

Track FREGAT R/B now!


NORAD ID: 28133
Int'l Code: 2003-059B
Perigee: 4,458.1 km
Apogee: 35,762.7 km
Inclination: 24.2 °
Period: 714.8 minutes
Semi major axis: 26481 km
RCS: 9.0569 m2 (large)
Launch date: December 27, 2003
Source: Commonwealth of Independent States (former USSR) (CIS)
Launch site: TYURATAM MISSILE AND SPACE COMPLEX (TTMTR)

Note: This is a ROCKET BODY
Your satellite tracking list
Your tracking list is empty




NASA's NSSDC Master Catalog

Two Line Element Set (TLE):
1 28133U 03059B   24258.55132081 -.00000034  00000-0  00000-0 0  9998
2 28133  24.2142 355.6829 5910677 204.1507 110.0743  2.01460910152520
Source of the keplerian elements: AFSPC